This demonstration page uses our WeatherBlox Daily Observations layout. Learn more.

Left ArrowRight Arrow

Hourly Observations for January 6, 2022

Temp ( °F °C ) Dew Point ( °F °C ) Humidity (%) Winds ( mph kmh ) Pressure ( in mb ) Visibility ( mi km ) Precip ( " mm )
12:51 am 00:51 Clear 36 2.2 29 -1.7 76 76 ESE 6 9 30.02 1017 10 16 0.00 0.00
1:51 am 01:51 Clear 36 2.2 29 -1.7 76 76 E 6 9 30.02 1017 10 16 0.00 0.00
2:51 am 02:51 Clear 33 0.6 28 -2.2 82 82 Calm 30.02 1017 10 16 0.00 0.00
3:51 am 03:51 Clear 31 -0.6 28 -2.2 89 89 ESE 3 6 30.02 1017 10 16 0.00 0.00
4:51 am 04:51 Clear 32 0 28 -2.2 85 85 E 3 6 30.02 1017 10 16 0.00 0.00
5:51 am 05:51 Clear 30 -1.1 27 -2.8 88 88 ESE 3 6 30.04 1017 10 16 0.00 0.00
6:51 am 06:51 Clear 29 -1.7 27 -2.8 92 92 ESE 5 7 30.07 1018 10 16 0.00 0.00
7:51 am 07:51 Sunny 32 0 28 -2.2 85 85 ESE 6 9 30.08 1019 10 16 0.00 0.00
8:51 am 08:51 Sunny 38 3.3 29 -1.7 70 70 ESE 5 7 30.07 1018 10 16 0.00 0.00
9:51 am 09:51 Sunny 45 7.2 31 -0.6 58 58 SE 5 7 30.08 1019 10 16 0.00 0.00
10:51 am 10:51 Sunny 50 10 31 -0.6 48 48 SE 6 9 30.07 1018 10 16 0.00 0.00
11:51 am 11:51 Sunny 54 12.2 31 -0.6 42 42 VRB 6 9 30.03 1017 10 16 0.00 0.00
12:51 pm 12:51 Sunny 58 14.4 31 -0.6 36 36 E 3 6 29.98 1015 10 16 0.00 0.00
1:51 pm 13:51 Sunny 62 16.7 31 -0.6 31 31 Calm 29.94 1014 10 16 0.00 0.00
2:51 pm 14:51 Sunny 63 17.2 31 -0.6 30 30 S 5 7 29.93 1014 10 16 0.00 0.00
3:51 pm 15:51 Sunny 63 17.2 31 -0.6 30 30 Calm 29.92 1013 10 16 0.00 0.00
4:51 pm 16:51 Sunny 62 16.7 32 0 32 32 WSW 3 6 29.92 1013 10 16 0.00 0.00
5:51 pm 17:51 Clear 54 12.2 34 1.1 47 47 NNW 7 11 29.95 1014 10 16 0.00 0.00
6:51 pm 18:51 Clear 49 9.4 35 1.7 59 59 N 7 11 29.96 1015 10 16 0.00 0.00
7:51 pm 19:51 Clear 47 8.3 34 1.1 61 61 ESE 5 7 29.97 1015 10 16 0.00 0.00
8:51 pm 20:51 Clear 43 6.1 34 1.1 71 71 E 3 6 29.97 1015 10 16 0.00 0.00
9:51 pm 21:51 Clear 41 5 34 1.1 76 76 Calm 29.96 1015 10 16 0.00 0.00
10:51 pm 22:51 Clear 40 4.4 34 1.1 79 79 Calm 29.96 1015 10 16 0.00 0.00
11:51 pm 23:51 Clear 37 2.8 33 0.6 86 86 Calm 29.96 1014 10 16 0.00 0.00

Powered by AerisWeather